Regional Weather Roundup
Issued by NWS State College, PA

Home | Current Version | Previous Version | Text Only | Print | Product List | Glossary Off
Versions: 1 2 3 4 5 6 7 8 9 10 11 12 13 14 15 16 17 18 19 20 21 22 23 24 25 26 27 28 29 30 31 32 33 34 35 36 37 38 39 40 41 42 43 44 45 46 47 48 49 50

000
ASUS41 KCTP 171110
RWRCTP

REGIONAL WEATHER ROUNDUP
NATIONAL WEATHER SERVICE STATE COLLEGE PA
600 AM EST FRI NOV 17 2017

Note: "fair" indicates few or no clouds below 12,000 feet with no
significant weather and/or obstructions to visibility.

* = STATION THAT DOES NOT REPORT PRECIPITATION /E.G. RAIN...SNOW...ETC/
    THUNDER OR FOG.

PAZ002>004-007>009-013>016-020>023-029>032-171200-
WESTERN PENNSYLVANIA

CITY           SKY/WX    TMP DP  RH WIND       PRES   REMARKS
ERIE           CLOUDY    35  25  66 NW7       30.24R
MEADVILLE      CLOUDY    32  32 100 NW3       30.21R
FRANKLIN*      CLOUDY    32  28  85 NW6       30.20R
NEW CASTLE     CLOUDY    35  28  75 NW6       30.24R
BEAVER COUNTY  NOT AVBL
BUTLER*        CLOUDY    34  26  72 VRB5      30.22R
PITTSBURGH INT CLOUDY    37  28  70 NW6       30.22R
PITTSBURGH     CLOUDY    36  25  64 N6        30.21R
INDIANA*       CLOUDY    34  28  80 NW8       30.22S
LATROBE        CLOUDY    36  27  69 NW6       30.22R
WASHINGTON CO* CLOUDY    36  29  75 W5        30.26R
$$

PAZ004>006-010>012-017>019-024>028-033>037-041-042-045-046-049>053-171200-
CENTRAL PENNSYLVANIA

CITY           SKY/WX    TMP DP  RH WIND       PRES   REMARKS
BRADFORD       CLOUDY    30  24  78 N13       30.13R
DUBOIS         CLOUDY    31  25  78 N7        30.14S
CLEARFIELD     CLOUDY    33  26  75 NW8       30.15S
JOHNSTOWN      CLOUDY    31  26  82 NW15G23   30.13R
ALTOONA        CLOUDY    36  27  69 NW14G28   30.15R
STATE COLLEGE  CLOUDY    34  25  69 W13       30.15R
WILLIAMSPORT   CLOUDY    39  25  57 NW10      30.13R
SELINSGROVE    MOCLDY    39  26  59 NW14G24   30.13R
FT INDIANTOWN  MOCLDY    40  26  57 NW6       30.10R
CAPITAL CITY   MOCLDY    40  25  55 NW10      30.13R
HARRISBURG     MOCLDY    40  27  59 NW16      30.12R
YORK           PTCLDY    36  28  73 NW7       30.13R
$$

PAZ038>040-043-044-047-048-054-055-060>062-067>071-171200-
EASTERN PENNSYLVANIA

CITY           SKY/WX    TMP DP  RH WIND       PRES   REMARKS
SCRANTON       CLOUDY    36  25  64 VRB7      30.08R
MOUNT POCONO   CLOUDY    30  24  78 NW18G32   29.98R
ALLENTOWN      CLOUDY    40  25  55 NW15G21   30.06R
QUAKERTOWN*    MOSUNNY   37  27  65 NW7       30.07R
READING        CLOUDY    41  29  62 W12       30.08R
LANCASTER      PTCLDY    40  29  64 NW15G22   30.10R
COATESVILLE    CLOUDY    39  28  65 NW12      30.09S
POTTSTOWN      PTCLDY    39  26  59 NW8       30.08R
BLUE BELL      MOCLDY    37  28  70 NW3       30.08R
DOYLESTOWN     CLEAR     38  32  79 NW13G29   30.05R
WILLOW GROVE   NOT AVBL
NORTH PHILA    MOCLDY    43  28  55 N10       30.09R
PHILADELPHIA   PTCLDY    44  27  51 W10       30.09R
$$




USA.gov is the U.S. government's official web portal to all federal, state and local government web resources and services.